Franklin, PA

10:43 PM EDT on March 24, 2017 (GMT -0400)
Venango Regional

Weather History for KFKL - January, 2014

Change the Weather History Date:

Tuesday, January 7, 2014

  Actual Average Record
Temperature  
Mean Temperature -6 °F -  
Max Temperature 0 °F 33 °F 64 °F (1946)
Min Temperature -13 °F 19 °F -13 °F (2014)
Degree Days  
Heating Degree Days 72    
Moisture  
Dew Point -14 °F    
Average Humidity 68    
Maximum Humidity 78    
Minimum Humidity 60    
Precipitation  
Precipitation 0.00 in - - ()
Sea Level Pressure  
Sea Level Pressure 30.14 in    
Wind  
Wind Speed 14 mph (SW)    
Max Wind Speed 22 mph    
Max Gust Speed 30 mph    
Visibility 7 miles    
Events      
Averages and records for this station are not official NWS values.
T = Trace of Precipitation, MM = Missing Value Source: NWS Daily Summary

Daily Weather History Graph

Daily Weather History Graph

Search for Another Location

Airport or City:

Trip Planner

Search our weather history database for the weather conditions in past years. The results will help you decide how hot, cold, wet, or windy it might be!

Date:

Astronomy

Jan. 07, 2014 Rise Set
Actual Time 7:45 AM EST 5:06 PM EST
Civil Twilight 7:14 AM EST 5:37 PM EST
Nautical Twilight 6:40 AM EST 6:11 PM EST
Astronomical Twilight 6:06 AM EST 6:45 PM EST
Moon 11:28 AM EST (1/7) No Moon Set
Length of Visible Light 10h 22m
Length of Day
9h 20m
Waxing Crescent, 45% of the Moon is Illuminated
Jan 7
Waxing Crescent
Jan 7
First Quarter
Jan 15
Full
Jan 24
Last Quarter
Jan 30
New

Hourly Weather History & Observations

Time (EST) Temp. Windchill Dew Point Humidity Pressure Visibility Wind Dir Wind Speed Gust Speed Precip Events Conditions
12:15 AM -11.2 °F -35.2 °F -20.2 °F 64% 30.00 in 5.0 mi WSW 17.3 mph 25.3 mph N/A   Overcast
12:35 AM -11.2 °F -34.4 °F -20.2 °F 64% 30.00 in 2.5 mi WSW 16.1 mph 25.3 mph N/A   Overcast
12:55 AM -11.2 °F -35.2 °F -20.2 °F 64% 30.01 in 5.0 mi WSW 17.3 mph 24.2 mph N/A   Overcast
1:15 AM -11.2 °F -32.9 °F -20.2 °F 64% 30.01 in 8.0 mi WSW 13.8 mph 21.9 mph N/A   Overcast
1:35 AM -13.0 °F -37.5 °F -20.2 °F 70% 30.01 in 5.0 mi WSW 17.3 mph 24.2 mph N/A   Overcast
1:55 AM -13.0 °F -36.8 °F -20.2 °F 70% 30.02 in 5.0 mi WSW 16.1 mph 24.2 mph N/A   Overcast
2:15 AM -13.0 °F -38.8 °F -20.2 °F 70% 30.03 in 10.0 mi WSW 19.6 mph 28.8 mph N/A   Scattered Clouds
2:35 AM -13.0 °F -35.2 °F -20.2 °F 70% 30.04 in 10.0 mi WSW 13.8 mph 19.6 mph N/A   Clear
2:55 AM -13.0 °F -34.3 °F -20.2 °F 70% 30.06 in 8.0 mi WSW 12.7 mph 21.9 mph N/A   Mostly Cloudy
3:15 AM -13.0 °F -33.4 °F -20.2 °F 70% 30.06 in 5.0 mi WSW 11.5 mph 23.0 mph N/A   Overcast
3:35 AM -13.0 °F -36.8 °F -20.2 °F 70% 30.06 in 3.0 mi WSW 16.1 mph 23.0 mph N/A   Overcast
3:55 AM -13.0 °F -35.2 °F -20.2 °F 70% 30.06 in 4.0 mi SW 13.8 mph 19.6 mph N/A   Overcast
4:15 AM - - - N/A% 30.06 in 10.0 mi WSW 11.5 mph 18.4 mph N/A   Mostly Cloudy
4:35 AM -13.0 °F -32.4 °F -20.2 °F 70% 30.06 in 10.0 mi WSW 10.4 mph 19.6 mph N/A   Partly Cloudy
4:55 AM - - - N/A% 30.05 in 10.0 mi WSW 11.5 mph 19.6 mph N/A   Clear
5:15 AM -13.0 °F -36.8 °F -20.2 °F 70% 30.06 in 8.0 mi WSW 16.1 mph 24.2 mph N/A   Scattered Clouds
5:35 AM -11.2 °F -32.9 °F -18.4 °F 70% 30.06 in 5.0 mi SW 13.8 mph 18.4 mph N/A   Mostly Cloudy
5:55 AM -11.2 °F -31.1 °F -18.4 °F 70% 30.06 in 3.0 mi SW 11.5 mph 19.6 mph N/A   Overcast
6:15 AM -11.2 °F -32.9 °F -18.4 °F 70% 30.06 in 4.0 mi WSW 13.8 mph 20.7 mph N/A   Overcast
6:35 AM -11.2 °F -31.1 °F -18.4 °F 70% 30.07 in 4.0 mi WSW 11.5 mph 21.9 mph N/A   Overcast
6:55 AM -11.2 °F -32.1 °F -18.4 °F 70% 30.08 in 4.0 mi WSW 12.7 mph 19.6 mph N/A   Overcast
7:15 AM -11.2 °F -31.1 °F -18.4 °F 70% 30.09 in 3.0 mi WSW 11.5 mph 20.7 mph N/A   Overcast
7:35 AM -11.2 °F -31.1 °F -18.4 °F 70% 30.10 in 2.0 mi WSW 11.5 mph - N/A   Overcast
7:55 AM -11.2 °F -33.7 °F -16.6 °F 77% 30.11 in 1.5 mi SW 15.0 mph 21.9 mph N/A   Overcast
8:15 AM -11.2 °F -31.1 °F -16.6 °F 77% 30.12 in 1.8 mi SW 11.5 mph - N/A   Overcast
8:35 AM -9.4 °F -29.8 °F -16.6 °F 71% 30.13 in 1.8 mi WSW 12.7 mph 17.3 mph N/A   Overcast
8:55 AM -9.4 °F -30.6 °F -16.6 °F 71% 30.13 in 3.0 mi SW 13.8 mph 19.6 mph N/A   Overcast
9:15 AM -9.4 °F -28.9 °F -16.6 °F 71% 30.14 in 3.0 mi WSW 11.5 mph 19.6 mph N/A   Overcast
9:35 AM -9.4 °F -28.9 °F -16.6 °F 71% 30.15 in 2.5 mi WSW 11.5 mph 23.0 mph N/A   Overcast
9:55 AM -7.6 °F -31.1 °F -14.8 °F 71% 30.17 in 2.5 mi WSW 18.4 mph 26.5 mph N/A   Overcast
10:15 AM -7.6 °F -29.1 °F -14.8 °F 71% 30.17 in 3.0 mi WSW 15.0 mph 20.7 mph N/A   Overcast
10:35 AM -7.6 °F -29.1 °F -14.8 °F 71% 30.16 in 3.0 mi WSW 15.0 mph 23.0 mph N/A   Overcast
10:55 AM -5.8 °F -26.0 °F -14.8 °F 65% 30.16 in 6.0 mi WSW 13.8 mph 21.9 mph N/A   Overcast
11:15 AM -5.8 °F -29.9 °F -14.8 °F 65% 30.16 in 2.5 mi SW 20.7 mph 29.9 mph N/A   Overcast
11:35 AM -5.8 °F -25.2 °F -14.8 °F 65% 30.16 in 4.0 mi WSW 12.7 mph 24.2 mph N/A   Overcast
11:55 AM -4.0 °F -25.8 °F -13.0 °F 65% 30.15 in 4.0 mi SW 17.3 mph 27.6 mph N/A   Overcast
12:15 PM -4.0 °F -27.0 °F -11.2 °F 71% 30.15 in 5.0 mi WSW 19.6 mph 28.8 mph N/A   Overcast
12:35 PM -4.0 °F -27.0 °F -14.8 °F 60% 30.16 in 2.5 mi SW 19.6 mph 29.9 mph N/A   Overcast
12:55 PM -2.2 °F -23.5 °F -11.2 °F 66% 30.15 in 1.8 mi WSW 17.3 mph 24.2 mph N/A   Overcast
1:15 PM -2.2 °F -25.7 °F -11.2 °F 66% 30.15 in 3.0 mi WSW 21.9 mph 27.6 mph N/A   Overcast
1:35 PM -0.4 °F -15.7 °F -11.2 °F 60% 30.14 in 3.0 mi WSW 9.2 mph 25.3 mph N/A   Overcast
1:55 PM -0.4 °F -19.2 °F -9.4 °F 66% 30.15 in 5.0 mi WSW 13.8 mph - N/A   Overcast
2:15 PM -0.4 °F -19.2 °F -9.4 °F 66% 30.16 in 7.0 mi SW 13.8 mph 20.7 mph N/A   Overcast
2:35 PM -0.4 °F -22.3 °F -11.2 °F 60% 30.16 in 5.0 mi WSW 19.6 mph 24.2 mph N/A   Overcast
2:55 PM -0.4 °F -20.5 °F - N/A% 30.16 in 10.0 mi WSW 16.1 mph 24.2 mph N/A   Overcast
3:15 PM -0.4 °F -21.7 °F -9.4 °F 66% 30.17 in 8.0 mi SW 18.4 mph 24.2 mph N/A   Mostly Cloudy
3:35 PM -0.4 °F -19.9 °F -9.4 °F 66% 30.17 in 8.0 mi WSW 15.0 mph 23.0 mph N/A   Overcast
3:55 PM -0.4 °F -19.2 °F -9.4 °F 66% 30.18 in 9.0 mi SW 13.8 mph 21.9 mph N/A   Overcast
4:15 PM -0.4 °F -20.5 °F -11.2 °F 60% 30.18 in 10.0 mi SW 16.1 mph 23.0 mph N/A   Mostly Cloudy
4:35 PM -0.4 °F -18.4 °F -11.2 °F 60% 30.18 in 10.0 mi SW 12.7 mph 21.9 mph N/A   Scattered Clouds
4:55 PM -0.4 °F -21.2 °F -9.4 °F 66% 30.18 in 10.0 mi SW 17.3 mph 20.7 mph N/A   Partly Cloudy
5:15 PM -0.4 °F -19.2 °F -11.2 °F 60% 30.18 in 10.0 mi SW 13.8 mph 20.7 mph N/A   Clear
5:35 PM -0.4 °F -18.4 °F -11.2 °F 60% 30.19 in 10.0 mi SW 12.7 mph 19.6 mph N/A   Clear
5:55 PM -0.4 °F -19.9 °F -9.4 °F 66% 30.19 in 10.0 mi SW 15.0 mph 18.4 mph N/A   Clear
6:15 PM -0.4 °F -18.4 °F -7.6 °F 72% 30.19 in 10.0 mi SW 12.7 mph 18.4 mph N/A   Clear
6:35 PM -0.4 °F -15.7 °F -9.4 °F 66% 30.20 in 10.0 mi SW 9.2 mph - N/A   Clear
6:55 PM -0.4 °F -16.7 °F -9.4 °F 66% 30.21 in 10.0 mi SW 10.4 mph 18.4 mph N/A   Clear
7:15 PM -0.4 °F -16.7 °F -9.4 °F 66% 30.21 in 10.0 mi SW 10.4 mph - N/A   Clear
7:35 PM -0.4 °F -15.7 °F -7.6 °F 72% 30.22 in 10.0 mi SW 9.2 mph 17.3 mph N/A   Clear
7:55 PM -0.4 °F -15.7 °F -9.4 °F 66% 30.22 in 10.0 mi SW 9.2 mph 16.1 mph N/A   Clear
8:15 PM -0.4 °F -18.4 °F -7.6 °F 72% 30.23 in 10.0 mi SW 12.7 mph 17.3 mph N/A   Clear
8:35 PM -0.4 °F -18.4 °F -7.6 °F 72% 30.23 in 10.0 mi SW 12.7 mph 17.3 mph N/A   Clear
8:55 PM -0.4 °F -16.7 °F -7.6 °F 72% 30.24 in 10.0 mi SW 10.4 mph - N/A   Clear
9:15 PM -0.4 °F -14.7 °F -9.4 °F 66% 30.24 in 10.0 mi SW 8.1 mph - N/A   Clear
9:35 PM -0.4 °F -15.7 °F -5.8 °F 78% 30.25 in 10.0 mi SW 9.2 mph - N/A   Clear
9:55 PM -0.4 °F -16.7 °F -7.6 °F 72% 30.26 in 10.0 mi SW 10.4 mph - N/A   Clear
10:15 PM -0.4 °F -14.7 °F -5.8 °F 78% 30.26 in 10.0 mi SW 8.1 mph - N/A   Clear
10:35 PM -0.4 °F -15.7 °F -7.6 °F 72% 30.26 in 10.0 mi SW 9.2 mph - N/A   Clear
10:55 PM -0.4 °F -15.7 °F -5.8 °F 78% 30.26 in 10.0 mi SW 9.2 mph - N/A   Clear
11:15 PM -0.4 °F -14.7 °F -7.6 °F 72% 30.26 in 10.0 mi SW 8.1 mph - N/A   Clear
11:35 PM -0.4 °F -13.4 °F -7.6 °F 72% 30.27 in 10.0 mi SW 6.9 mph - N/A   Clear
11:55 PM -0.4 °F -13.4 °F -7.6 °F 72% 30.27 in 10.0 mi SW 6.9 mph - N/A   Clear